Tracking 18785 objects as of 21-July-2017
HD Live streaming from Space Station
objects crossing your sky now
MAYAK may become the brightest orbital object in the night sky!
Where is MAYAK now?
How to spot MAYAK

TURKSAT 1C

Track TURKSAT 1C now!
TURKSAT 1C is classified as:


NORAD ID: 23949
Int'l Code: 1996-040B
Perigee: 35,733.1 km
Apogee: 35,793.2 km
Inclination: 7.2 °
Period: 1,434.5 minutes
Semi major axis: 42134 km
RCS: 2.5119 m2 (large)
Launch date: July 9, 1996
Source: Turkey (TURK)
Launch site: FRENCH GUIANA (FRGUI)

16 Ku-band transponders; radio and TV communications to Turkey and neighboring countries.
Your satellite tracking list
Your tracking list is empty





NASA's NSSDC Master Catalog

Two Line Element Set (TLE):
1 23949U 96040B   17201.58122605 -.00000104 +00000-0 +00000-0 0  9992
2 23949 007.1964 050.8645 0007129 109.5628 058.8621 01.00380897077059
Source of the keplerian elements: AFSPC